Torna al catalogo

CZ-4C R/B

AttivoPO
NORAD 39211·ROCKET BODY·🇨🇳 China

Lanciato Jul 19, 2013 da Taiyuan Satellite Launch Center

Loading…

Prossimi Passaggi (prossime 24 ore)

TLE

AggiornatoSource: Space-Track

Epoca: Sep 13, 2026, 19:05 UTC

1 39211U 13037D   26256.79539042  .00012434  00000-0  29431-3 0  9996
2 39211  97.9601 188.0706 0060677 323.6573  36.0557 15.40005912724517

Traccia CZ-4C R/B in tempo reale con AllMySat

Download on the App Store